QPF
0.01 0.01 0.00 0.00 0.00 0.00 0.00 0.00 0.00 0.00 0.00 0.00 0.00 0.00 0.00 0.00 0.00 0.00 0.00 0.00 0.00 0.00 0.00 0.00 0.00 0.00 0.00 0.00 0.00 0.00 0.01 0.01 0.01 0.00 0.00 0.00 0.00 0.00 0.00 0.00 0.00 0.00 0.00
0.01 0.01 0.00 0.00 0.00 0.00 0.00 0.00 0.00 0.00 0.00 0.00 0.00 0.00 0.00 0.00 0.00 0.00 0.00 0.00 0.00 0.00 0.00 0.00 0.00 0.00 0.00 0.00 0.00 0.01 0.01 0.01 0.01 0.00 0.00 0.00 0.00 0.00 0.00 0.00 0.00 0.00 0.00
0.01 0.01 0.01 0.01 0.01 0.01 0.00 0.00 0.00 0.00 0.00 0.00 0.00 0.00 0.00 0.00 0.00 0.00 0.00 0.00 0.00 0.00 0.00 0.00 0.00 0.00 0.00 0.01 0.01 0.00 0.00 0.00 0.01 0.00 0.00 0.00 0.00 0.00 0.00 0.00 0.00 0.00 0.00
0.01 0.02 0.02 0.01 0.01 0.01 0.01 0.00 0.00 0.00 0.00 0.00 0.01 0.01 0.01 0.01 0.01 0.02 0.02 0.01 0.01 0.01 0.00 0.00 0.00 0.00 0.00 0.01 0.00 0.00 0.00 0.00 0.01 0.00 0.00 0.00 0.00 0.00 0.00 0.00 0.00 0.00 0.00
0.01 0.01 0.01 0.01 0.01 0.01 0.00 0.00 0.00 0.00 0.00 0.00 0.01 0.02 0.03 0.04 0.04 0.04 0.03 0.02 0.01 0.01 0.00 0.00 0.00 0.00 0.00 0.00 0.00 0.00 0.00 0.01 0.00 0.00 0.00 0.00 0.00 0.01 0.00 0.00 0.00 0.00 0.00
0.00 0.01 0.01 0.01 0.01 0.01 0.01 0.01 0.01 0.01 0.00 0.00 0.01 0.02 0.03 0.02 0.02 0.02 0.01 0.01 0.01 0.00 0.00 0.00 0.00 0.00 0.00 0.00 0.00 0.00 0.00 0.00 0.01 0.01 0.01 0.01 0.01 0.01 0.01 0.01 0.01 0.01 0.01
0.01 0.01 0.01 0.01 0.01 0.01 0.02 0.01 0.01 0.01 0.00 0.00 0.00 0.00 0.00 0.00 0.00 0.01 0.01 0.00 0.00 0.00 0.00 0.00 0.00 0.00 0.00 0.00 0.00 0.00 0.00 0.00 0.00 0.00 0.01 0.01 0.01 0.02 0.03 0.03 0.03 0.03 0.02
0.01 0.02 0.03 0.03 0.03 0.03 0.03 0.03 0.02 0.01 0.00 0.00 0.00 0.00 0.00 0.00 0.00 0.00 0.00 0.00 0.00 0.00 0.00 0.00 0.00 0.00 0.00 0.00 0.01 0.01 0.01 0.00 0.00 0.00 0.01 0.01 0.01 0.03 0.04 0.04 0.04 0.03 0.02
0.01 0.02 0.02 0.03 0.03 0.03 0.03 0.02 0.02 0.01 0.01 0.00 0.00 0.00 0.00 0.00 0.00 0.00 0.00 0.00 0.00 0.00 0.00 0.00 0.00 0.01 0.01 0.01 0.01 0.01 0.01 0.01 0.00 0.00 0.00 0.00 0.00 0.00 0.01 0.02 0.02 0.03 0.02
0.02 0.02 0.02 0.02 0.02 0.02 0.02 0.02 0.02 0.01 0.01 0.00 0.00 0.00 0.00 0.00 0.00 0.00 0.00 0.00 0.00 0.00 0.01 0.01 0.00 0.00 0.00 0.01 0.01 0.01 0.01 0.01 0.02 0.02 0.01 0.01 0.00 0.00 0.00 0.00 0.01 0.03 0.03
0.02 0.02 0.02 0.02 0.02 0.02 0.02 0.02 0.01 0.01 0.01 0.00 0.00 0.00 0.00 0.00 0.00 0.00 0.00 0.00 0.00 0.00 0.01 0.01 0.00 0.00 0.00 0.00 0.00 0.01 0.01 0.01 0.02 0.03 0.03 0.02 0.02 0.01 0.01 0.01 0.01 0.02 0.04
0.02 0.02 0.02 0.02 0.02 0.02 0.02 0.02 0.01 0.01 0.01 0.01 0.01 0.00 0.00 0.00 0.00 0.00 0.00 0.00 0.00 0.00 0.00 0.00 0.00 0.00 0.00 0.00 0.00 0.00 0.00 0.01 0.01 0.01 0.01 0.01 0.01 0.01 0.01 0.02 0.02 0.02 0.03
0.03 0.03 0.03 0.03 0.03 0.03 0.03 0.02 0.02 0.02 0.01 0.01 0.01 0.00 0.00 0.00 0.01 0.00 0.00 0.00 0.00 0.00 0.00 0.00 0.00 0.00 0.00 0.00 0.00 0.00 0.01 0.01 0.01 0.01 0.01 0.01 0.02 0.02 0.02 0.02 0.02 0.03 0.03
0.03 0.03 0.03 0.03 0.03 0.02 0.02 0.02 0.01 0.01 0.01 0.01 0.01 0.01 0.01 0.01 0.01 0.01 0.02 0.02 0.01 0.01 0.01 0.01 0.01 0.01 0.01 0.00 0.00 0.00 0.01 0.01 0.01 0.01 0.02 0.02 0.02 0.02 0.02 0.02 0.03 0.03 0.03
0.03 0.03 0.02 0.02 0.01 0.01 0.01 0.01 0.02 0.02 0.02 0.02 0.01 0.01 0.01 0.01 0.01 0.01 0.01 0.01 0.02 0.02 0.02 0.01 0.01 0.01 0.01 0.01 0.01 0.02 0.02 0.02 0.01 0.02 0.02 0.02 0.02 0.03 0.03 0.03 0.03 0.03 0.03
0.04 0.04 0.03 0.02 0.02 0.02 0.02 0.03 0.03 0.02 0.02 0.01 0.01 0.00 0.00 0.00 0.00 0.01 0.01 0.00 0.00 0.01 0.00 0.00 0.01 0.01 0.02 0.02 0.03 0.03 0.03 0.04 0.04 0.03 0.03 0.03 0.03 0.04 0.04 0.04 0.04 0.03 0.03
0.03 0.03 0.03 0.03 0.03 0.02 0.02 0.01 0.01 0.01 0.01 0.00 0.00 0.00 0.00 0.00 0.00 0.00 0.00 0.00 0.00 0.00 0.00 0.00 0.01 0.01 0.02 0.03 0.04 0.04 0.05 0.05 0.06 0.05 0.05 0.04 0.04 0.04 0.04 0.04 0.04 0.04 0.03
0.03 0.03 0.02 0.02 0.02 0.01 0.01 0.01 0.01 0.01 0.01 0.01 0.01 0.00 0.00 0.00 0.00 0.00 0.00 0.00 0.00 0.00 0.01 0.01 0.01 0.02 0.03 0.03 0.04 0.05 0.05 0.05 0.05 0.04 0.04 0.04 0.04 0.05 0.04 0.04 0.04 0.03 0.03
0.02 0.02 0.02 0.02 0.02 0.02 0.02 0.02 0.02 0.01 0.01 0.01 0.01 0.00 0.01 0.01 0.01 0.01 0.01 0.01 0.01 0.01 0.01 0.02 0.02 0.03 0.03 0.03 0.04 0.04 0.04 0.04 0.05 0.05 0.05 0.05 0.06 0.06 0.05 0.05 0.04 0.04 0.04
0.03 0.03 0.03 0.02 0.02 0.03 0.03 0.03 0.03 0.03 0.02 0.02 0.01 0.01 0.01 0.01 0.01 0.01 0.01 0.01 0.01 0.02 0.03 0.03 0.03 0.04 0.05 0.05 0.05 0.04 0.04 0.04 0.05 0.06 0.06 0.05 0.05 0.06 0.05 0.05 0.06 0.06 0.06
0.01 0.01 0.02 0.02 0.02 0.02 0.02 0.02 0.01 0.01 0.01 0.00 0.00 0.00 0.00 0.00 0.01 0.02 0.02 0.03 0.03 0.04 0.05 0.06 0.06 0.06 0.06 0.06 0.06 0.05 0.05 0.06 0.06 0.07 0.08 0.07 0.07 0.06 0.06 0.06 0.06 0.07 0.07
0.00 0.00 0.00 0.00 0.00 0.00 0.00 0.00 0.00 0.00 0.00 0.00 0.00 0.00 0.00 0.00 0.01 0.02 0.03 0.04 0.04 0.05 0.06 0.07 0.07 0.06 0.07 0.08 0.09 0.09 0.09 0.08 0.08 0.09 0.10 0.10 0.10 0.10 0.09 0.08 0.08 0.08 0.08
0.00 0.00 0.00 0.00 0.00 0.00 0.00 0.00 0.00 0.00 0.00 0.00 0.00 0.00 0.00 0.01 0.02 0.03 0.03 0.04 0.05 0.06 0.06 0.07 0.08 0.08 0.09 0.09 0.10 0.11 0.11 0.12 0.12 0.11 0.12 0.12 0.11 0.10 0.10 0.10 0.09 0.09 0.09
0.00 0.00 0.00 0.00 0.00 0.00 0.00 0.00 0.00 0.01 0.00 0.00 0.00 0.00 0.01 0.02 0.03 0.03 0.03 0.04 0.05 0.06 0.08 0.08 0.08 0.07 0.07 0.07 0.08 0.08 0.07 0.08 0.09 0.09 0.09 0.10 0.10 0.09 0.10 0.10 0.10 0.09 0.10
0.00 0.00 0.01 0.00 0.00 0.00 0.00 0.00 0.00 0.00 0.00 0.00 0.01 0.01 0.02 0.02 0.03 0.03 0.04 0.06 0.06 0.06 0.08 0.08 0.09 0.09 0.08 0.07 0.07 0.08 0.08 0.06 0.05 0.05 0.07 0.08 0.09 0.09 0.08 0.08 0.09 0.09 0.09
0.00 0.00 0.00 0.00 0.00 0.00 0.00 0.00 0.00 0.01 0.01 0.01 0.02 0.02 0.03 0.03 0.03 0.04 0.05 0.05 0.06 0.07 0.08 0.09 0.09 0.09 0.09 0.08 0.08 0.08 0.06 0.05 0.04 0.04 0.05 0.07 0.08 0.08 0.07 0.07 0.07 0.09 0.10
MSLP
1014.27 1014.73 1015.20 1015.67 1016.10 1016.50 1016.85 1017.17 1017.45 1017.70 1017.93 1018.15 1018.35 1018.54 1018.71 1018.86 1018.99 1019.10 1019.19 1019.28 1019.36 1019.44 1019.51 1019.58 1019.62 1019.64 1019.62 1019.54 1019.40 1019.21 1018.96 1018.67 1018.35 1018.03 1017.71 1017.42 1017.16 1016.94 1016.77 1016.65 1016.57 1016.54 1016.55
1013.96 1014.44 1014.91 1015.38 1015.81 1016.22 1016.59 1016.92 1017.22 1017.50 1017.75 1017.98 1018.19 1018.38 1018.54 1018.67 1018.77 1018.86 1018.92 1018.97 1019.02 1019.07 1019.12 1019.17 1019.20 1019.21 1019.18 1019.12 1019.00 1018.83 1018.62 1018.37 1018.08 1017.79 1017.49 1017.20 1016.94 1016.69 1016.48 1016.31 1016.17 1016.07 1016.02
1013.57 1014.05 1014.53 1015.00 1015.44 1015.85 1016.23 1016.58 1016.90 1017.20 1017.48 1017.72 1017.94 1018.13 1018.28 1018.40 1018.49 1018.55 1018.59 1018.62 1018.65 1018.68 1018.70 1018.73 1018.75 1018.75 1018.73 1018.66 1018.56 1018.42 1018.24 1018.02 1017.77 1017.51 1017.24 1016.96 1016.69 1016.44 1016.19 1015.97 1015.77 1015.60 1015.47
1013.08 1013.57 1014.05 1014.52 1014.96 1015.37 1015.77 1016.13 1016.48 1016.79 1017.08 1017.35 1017.57 1017.76 1017.91 1018.03 1018.10 1018.16 1018.19 1018.21 1018.22 1018.24 1018.25 1018.27 1018.28 1018.27 1018.25 1018.19 1018.10 1017.98 1017.82 1017.64 1017.43 1017.20 1016.96 1016.70 1016.44 1016.18 1015.92 1015.66 1015.40 1015.17 1014.96
1012.53 1013.01 1013.49 1013.95 1014.39 1014.81 1015.20 1015.58 1015.93 1016.26 1016.56 1016.83 1017.06 1017.26 1017.41 1017.52 1017.60 1017.65 1017.69 1017.71 1017.72 1017.74 1017.75 1017.77 1017.77 1017.77 1017.74 1017.69 1017.62 1017.51 1017.38 1017.22 1017.04 1016.84 1016.63 1016.40 1016.16 1015.91 1015.64 1015.36 1015.07 1014.79 1014.51
1011.97 1012.44 1012.90 1013.35 1013.78 1014.18 1014.57 1014.94 1015.29 1015.61 1015.91 1016.18 1016.41 1016.60 1016.76 1016.88 1016.96 1017.02 1017.07 1017.10 1017.13 1017.15 1017.18 1017.20 1017.21 1017.21 1017.19 1017.15 1017.08 1016.99 1016.87 1016.73 1016.57 1016.40 1016.21 1016.01 1015.80 1015.56 1015.30 1015.03 1014.73 1014.42 1014.11
1011.50 1011.94 1012.37 1012.79 1013.18 1013.56 1013.92 1014.25 1014.57 1014.87 1015.15 1015.40 1015.62 1015.81 1015.97 1016.10 1016.19 1016.27 1016.33 1016.38 1016.43 1016.47 1016.51 1016.55 1016.57 1016.58 1016.57 1016.53 1016.47 1016.38 1016.27 1016.14 1016.00 1015.84 1015.67 1015.49 1015.29 1015.08 1014.85 1014.60 1014.31 1014.01 1013.69
1011.20 1011.59 1011.98 1012.34 1012.68 1013.00 1013.30 1013.58 1013.84 1014.09 1014.33 1014.55 1014.75 1014.93 1015.08 1015.21 1015.33 1015.42 1015.50 1015.57 1015.64 1015.70 1015.76 1015.81 1015.85 1015.87 1015.86 1015.83 1015.78 1015.69 1015.58 1015.44 1015.29 1015.13 1014.97 1014.79 1014.61 1014.43 1014.22 1014.00 1013.76 1013.50 1013.21
1011.15 1011.48 1011.79 1012.07 1012.33 1012.57 1012.77 1012.97 1013.15 1013.33 1013.51 1013.68 1013.85 1014.01 1014.16 1014.30 1014.42 1014.53 1014.63 1014.72 1014.80 1014.87 1014.94 1015.00 1015.05 1015.07 1015.08 1015.05 1015.00 1014.91 1014.79 1014.64 1014.47 1014.30 1014.11 1013.93 1013.75 1013.57 1013.40 1013.22 1013.03 1012.83 1012.60
1011.37 1011.61 1011.83 1012.02 1012.17 1012.29 1012.39 1012.47 1012.56 1012.65 1012.76 1012.88 1013.01 1013.15 1013.29 1013.43 1013.56 1013.68 1013.78 1013.87 1013.96 1014.03 1014.10 1014.16 1014.20 1014.23 1014.24 1014.21 1014.15 1014.06 1013.93 1013.76 1013.57 1013.36 1013.15 1012.94 1012.75 1012.57 1012.41 1012.27 1012.13 1012.00 1011.85
1011.81 1011.97 1012.08 1012.15 1012.18 1012.17 1012.14 1012.11 1012.08 1012.09 1012.12 1012.18 1012.28 1012.40 1012.53 1012.66 1012.79 1012.91 1013.00 1013.09 1013.16 1013.21 1013.26 1013.31 1013.34 1013.36 1013.36 1013.33 1013.28 1013.18 1013.03 1012.85 1012.63 1012.39 1012.14 1011.90 1011.68 1011.49 1011.33 1011.21 1011.12 1011.05 1010.98
1012.41 1012.47 1012.47 1012.42 1012.32 1012.18 1012.02 1011.87 1011.74 1011.65 1011.61 1011.63 1011.69 1011.79 1011.91 1012.03 1012.15 1012.25 1012.33 1012.39 1012.42 1012.45 1012.46 1012.47 1012.48 1012.48 1012.47 1012.44 1012.38 1012.28 1012.14 1011.95 1011.72 1011.45 1011.17 1010.90 1010.64 1010.42 1010.26 1010.14 1010.08 1010.05 1010.05
1013.07 1013.03 1012.92 1012.75 1012.53 1012.26 1011.98 1011.72 1011.50 1011.34 1011.24 1011.21 1011.25 1011.32 1011.43 1011.54 1011.64 1011.71 1011.76 1011.77 1011.75 1011.72 1011.68 1011.64 1011.61 1011.58 1011.56 1011.53 1011.48 1011.40 1011.27 1011.09 1010.86 1010.59 1010.29 1009.99 1009.70 1009.46 1009.27 1009.15 1009.09 1009.09 1009.13
1013.66 1013.54 1013.34 1013.06 1012.72 1012.35 1011.98 1011.63 1011.34 1011.11 1010.97 1010.91 1010.92 1010.98 1011.06 1011.15 1011.21 1011.24 1011.23 1011.18 1011.10 1010.99 1010.89 1010.79 1010.72 1010.66 1010.63 1010.60 1010.57 1010.51 1010.41 1010.26 1010.06 1009.80 1009.51 1009.21 1008.91 1008.65 1008.45 1008.31 1008.24 1008.23 1008.27
1014.12 1013.92 1013.63 1013.27 1012.85 1012.41 1011.96 1011.56 1011.21 1010.95 1010.77 1010.68 1010.67 1010.70 1010.75 1010.79 1010.81 1010.78 1010.71 1010.58 1010.42 1010.23 1010.06 1009.90 1009.78 1009.69 1009.65 1009.63 1009.62 1009.61 1009.55 1009.45 1009.30 1009.09 1008.83 1008.55 1008.26 1008.00 1007.79 1007.63 1007.54 1007.51 1007.53
1014.37 1014.11 1013.77 1013.35 1012.88 1012.39 1011.91 1011.47 1011.10 1010.81 1010.61 1010.49 1010.44 1010.43 1010.43 1010.41 1010.37 1010.26 1010.11 1009.90 1009.65 1009.40 1009.15 1008.93 1008.77 1008.66 1008.61 1008.61 1008.63 1008.66 1008.67 1008.63 1008.54 1008.40 1008.20 1007.96 1007.71 1007.47 1007.26 1007.10 1006.98 1006.92 1006.90
1014.41 1014.11 1013.74 1013.29 1012.81 1012.31 1011.82 1011.37 1010.99 1010.69 1010.46 1010.30 1010.20 1010.13 1010.06 1009.97 1009.84 1009.65 1009.41 1009.12 1008.79 1008.47 1008.16 1007.90 1007.70 1007.58 1007.53 1007.54 1007.60 1007.67 1007.74 1007.77 1007.76 1007.68 1007.56 1007.38 1007.19 1006.98 1006.79 1006.63 1006.51 1006.42 1006.36
1014.24 1013.93 1013.55 1013.11 1012.64 1012.16 1011.69 1011.26 1010.88 1010.57 1010.31 1010.11 1009.95 1009.80 1009.64 1009.46 1009.23 1008.94 1008.61 1008.24 1007.85 1007.47 1007.12 1006.84 1006.62 1006.50 1006.45 1006.49 1006.57 1006.68 1006.80 1006.89 1006.93 1006.93 1006.87 1006.77 1006.63 1006.47 1006.32 1006.17 1006.05 1005.95 1005.86
1013.91 1013.60 1013.24 1012.84 1012.41 1011.97 1011.55 1011.15 1010.79 1010.46 1010.18 1009.93 1009.69 1009.44 1009.18 1008.89 1008.56 1008.18 1007.76 1007.32 1006.89 1006.47 1006.11 1005.81 1005.60 1005.48 1005.45 1005.50 1005.61 1005.75 1005.89 1006.02 1006.11 1006.15 1006.15 1006.09 1006.01 1005.90 1005.78 1005.66 1005.55 1005.44 1005.34
1013.44 1013.15 1012.83 1012.49 1012.13 1011.76 1011.40 1011.04 1010.70 1010.38 1010.06 1009.75 1009.43 1009.09 1008.72 1008.31 1007.88 1007.41 1006.92 1006.43 1005.97 1005.54 1005.18 1004.90 1004.71 1004.62 1004.61 1004.68 1004.79 1004.94 1005.09 1005.23 1005.33 1005.39 1005.41 1005.39 1005.33 1005.26 1005.17 1005.08 1004.98 1004.88 1004.77
1012.86 1012.62 1012.35 1012.08 1011.80 1011.52 1011.23 1010.94 1010.63 1010.31 1009.97 1009.60 1009.20 1008.76 1008.29 1007.78 1007.25 1006.70 1006.16 1005.64 1005.17 1004.76 1004.43 1004.19 1004.04 1003.98 1004.00 1004.08 1004.20 1004.34 1004.48 1004.59 1004.68 1004.72 1004.73 1004.70 1004.65 1004.59 1004.51 1004.44 1004.35 1004.26 1004.16
1012.21 1012.02 1011.82 1011.63 1011.44 1011.25 1011.04 1010.81 1010.55 1010.25 1009.89 1009.48 1009.01 1008.49 1007.93 1007.33 1006.73 1006.12 1005.54 1005.01 1004.55 1004.17 1003.89 1003.70 1003.61 1003.59 1003.64 1003.74 1003.86 1003.99 1004.09 1004.17 1004.21 1004.20 1004.17 1004.11 1004.03 1003.94 1003.85 1003.77 1003.69 1003.60 1003.50
1011.54 1011.39 1011.27 1011.16 1011.06 1010.96 1010.83 1010.67 1010.46 1010.17 1009.82 1009.38 1008.87 1008.29 1007.66 1007.00 1006.34 1005.70 1005.10 1004.58 1004.14 1003.81 1003.58 1003.45 1003.42 1003.46 1003.55 1003.66 1003.78 1003.88 1003.95 1003.97 1003.95 1003.88 1003.77 1003.65 1003.51 1003.37 1003.24 1003.13 1003.03 1002.93 1002.83
1010.89 1010.79 1010.72 1010.68 1010.66 1010.64 1010.59 1010.50 1010.33 1010.09 1009.74 1009.30 1008.77 1008.15 1007.49 1006.79 1006.10 1005.44 1004.84 1004.33 1003.93 1003.64 1003.47 1003.40 1003.42 1003.51 1003.64 1003.77 1003.89 1003.97 1004.00 1003.97 1003.88 1003.73 1003.54 1003.33 1003.12 1002.91 1002.72 1002.55 1002.40 1002.28 1002.15
1010.33 1010.26 1010.24 1010.25 1010.29 1010.33 1010.35 1010.31 1010.19 1009.98 1009.66 1009.24 1008.70 1008.08 1007.40 1006.69 1005.98 1005.32 1004.73 1004.24 1003.87 1003.62 1003.49 1003.48 1003.55 1003.68 1003.84 1003.99 1004.11 1004.18 1004.17 1004.09 1003.93 1003.71 1003.45 1003.15 1002.84 1002.55 1002.28 1002.04 1001.83 1001.65 1001.49
1009.92 1009.87 1009.87 1009.91 1009.99 1010.07 1010.12 1010.12 1010.05 1009.87 1009.59 1009.18 1008.67 1008.06 1007.39 1006.69 1005.99 1005.33 1004.75 1004.28 1003.93 1003.71 1003.61 1003.63 1003.73 1003.89 1004.06 1004.23 1004.35 1004.41 1004.38 1004.26 1004.05 1003.76 1003.42 1003.04 1002.65 1002.27 1001.91 1001.58 1001.30 1001.06 1000.84
Thickness
5739 5736 5734 5731 5728 5726 5724 5722 5719 5716 5713 5710 5708 5706 5703 5701 5698 5694 5694 5690 5686 5684 5681 5679 5675 5672 5672 5672 5669 5666 5664 5661 5657 5660 5662 5661 5656 5653 5655 5655 5656 5657 5660
5741 5737 5733 5730 5728 5725 5723 5721 5717 5714 5711 5709 5706 5703 5701 5698 5695 5692 5689 5688 5684 5681 5679 5675 5672 5670 5666 5664 5663 5661 5659 5656 5652 5651 5653 5653 5652 5650 5648 5647 5650 5653 5653
5742 5737 5733 5730 5727 5724 5722 5719 5716 5712 5709 5707 5703 5700 5698 5696 5693 5690 5687 5684 5681 5678 5676 5672 5669 5666 5662 5661 5657 5656 5655 5654 5651 5648 5648 5648 5647 5646 5644 5643 5645 5645 5646
5743 5738 5733 5730 5727 5723 5720 5717 5713 5710 5707 5704 5701 5698 5696 5693 5690 5687 5684 5681 5678 5675 5672 5669 5666 5663 5659 5656 5653 5650 5648 5647 5645 5643 5643 5644 5642 5642 5638 5637 5639 5642 5642
5741 5737 5733 5730 5726 5722 5718 5714 5710 5707 5705 5702 5698 5696 5693 5690 5687 5684 5680 5677 5674 5671 5668 5666 5664 5660 5656 5651 5650 5648 5645 5641 5641 5640 5639 5639 5638 5634 5633 5633 5633 5633 5635
5739 5735 5732 5727 5723 5719 5715 5711 5707 5704 5701 5698 5694 5692 5689 5688 5683 5676 5673 5672 5670 5667 5665 5663 5661 5657 5652 5645 5641 5638 5635 5634 5634 5632 5633 5632 5629 5628 5626 5624 5624 5624 5625
5736 5732 5729 5725 5720 5716 5713 5708 5704 5700 5696 5692 5690 5687 5685 5682 5676 5671 5666 5663 5664 5663 5661 5658 5658 5659 5651 5647 5642 5634 5630 5625 5622 5623 5624 5623 5623 5622 5617 5616 5614 5614 5615
5733 5729 5726 5722 5717 5713 5708 5704 5700 5696 5693 5689 5686 5683 5681 5678 5672 5666 5661 5658 5659 5659 5657 5655 5652 5650 5648 5643 5639 5637 5633 5630 5624 5618 5618 5618 5617 5614 5611 5608 5606 5607 5608
5728 5725 5722 5717 5712 5708 5703 5699 5696 5692 5688 5685 5682 5680 5676 5674 5668 5662 5654 5655 5656 5655 5654 5652 5649 5646 5642 5635 5630 5629 5627 5626 5624 5619 5615 5612 5609 5605 5601 5599 5601 5601 5604
5722 5719 5716 5712 5707 5702 5698 5694 5691 5686 5683 5681 5679 5675 5672 5669 5664 5656 5649 5651 5652 5652 5651 5649 5644 5640 5636 5628 5624 5623 5621 5620 5619 5617 5610 5606 5603 5601 5597 5593 5595 5596 5598
5715 5711 5707 5703 5699 5695 5691 5687 5683 5680 5677 5673 5671 5669 5666 5663 5658 5652 5645 5644 5645 5645 5645 5644 5644 5637 5629 5622 5616 5616 5615 5612 5610 5609 5607 5606 5603 5601 5599 5595 5592 5591 5592
5703 5700 5696 5692 5690 5688 5681 5677 5674 5671 5667 5665 5663 5661 5661 5658 5653 5648 5640 5635 5633 5634 5635 5637 5636 5629 5621 5615 5610 5608 5604 5598 5600 5602 5603 5602 5601 5599 5598 5595 5592 5589 5587
5690 5687 5684 5681 5677 5675 5671 5668 5665 5662 5660 5659 5657 5655 5654 5653 5649 5641 5635 5630 5625 5622 5626 5626 5622 5615 5610 5607 5603 5600 5594 5593 5595 5596 5597 5597 5596 5595 5592 5589 5586 5583 5580
5677 5674 5671 5668 5666 5663 5661 5660 5658 5656 5652 5650 5647 5645 5644 5641 5639 5635 5630 5626 5619 5616 5616 5615 5610 5605 5601 5600 5599 5596 5593 5593 5593 5593 5593 5592 5590 5588 5585 5582 5579 5577 5576
5664 5661 5659 5658 5656 5651 5650 5647 5646 5643 5640 5634 5634 5632 5630 5628 5625 5615 5610 5612 5610 5607 5602 5603 5604 5604 5603 5601 5600 5598 5595 5591 5587 5586 5585 5584 5582 5581 5579 5577 5573 5571 5570
5652 5649 5649 5646 5643 5641 5640 5638 5633 5629 5624 5620 5616 5612 5613 5609 5605 5600 5596 5591 5588 5583 5583 5592 5595 5596 5596 5595 5593 5592 5590 5587 5584 5581 5578 5576 5575 5574 5572 5570 5567 5564 5564
5639 5636 5635 5633 5632 5631 5629 5626 5624 5620 5614 5610 5606 5602 5597 5594 5590 5586 5583 5579 5576 5571 5575 5583 5587 5588 5587 5586 5584 5582 5581 5580 5577 5573 5571 5569 5568 5566 5564 5563 5561 5559 5559
5628 5625 5623 5622 5621 5619 5617 5614 5611 5608 5606 5604 5599 5592 5587 5583 5579 5575 5571 5567 5574 5572 5574 5576 5577 5576 5575 5574 5573 5572 5571 5569 5567 5565 5564 5563 5562 5559 5558 5556 5556 5555 5555
5617 5616 5612 5610 5609 5607 5605 5602 5599 5595 5592 5589 5588 5585 5578 5574 5570 5566 5560 5562 5566 5567 5567 5566 5565 5564 5563 5562 5562 5561 5559 5558 5557 5555 5554 5554 5553 5552 5552 5551 5551 5550 5548
5604 5599 5596 5597 5597 5595 5592 5588 5585 5581 5577 5575 5572 5570 5567 5564 5563 5562 5558 5556 5555 5555 5553 5552 5551 5551 5551 5550 5550 5549 5548 5548 5547 5546 5546 5545 5545 5545 5546 5547 5547 5548 5548
5594 5591 5583 5584 5583 5581 5577 5573 5570 5566 5563 5561 5558 5555 5545 5545 5547 5547 5545 5543 5542 5540 5539 5539 5539 5539 5539 5540 5541 5541 5541 5540 5540 5539 5539 5539 5540 5541 5542 5544 5544 5544 5545
5581 5580 5577 5573 5570 5567 5563 5559 5557 5554 5551 5548 5545 5543 5536 5534 5534 5533 5531 5530 5529 5528 5528 5528 5529 5530 5531 5532 5532 5534 5535 5535 5536 5535 5535 5536 5536 5537 5538 5539 5541 5542 5543
5568 5566 5564 5561 5557 5551 5549 5547 5544 5541 5537 5534 5531 5529 5526 5523 5521 5519 5518 5517 5517 5517 5518 5518 5520 5522 5523 5524 5525 5527 5529 5531 5531 5531 5531 5532 5533 5534 5535 5536 5538 5539 5540
5555 5553 5550 5547 5543 5540 5537 5533 5530 5527 5523 5520 5518 5515 5513 5511 5509 5507 5506 5506 5506 5507 5509 5511 5513 5514 5516 5518 5519 5522 5525 5525 5525 5526 5526 5527 5529 5531 5533 5535 5537 5539 5539
5542 5539 5536 5533 5530 5527 5523 5519 5516 5512 5510 5507 5505 5503 5501 5499 5498 5497 5497 5497 5498 5499 5501 5504 5506 5508 5510 5513 5515 5518 5518 5517 5517 5518 5521 5523 5526 5528 5530 5533 5535 5537 5538
5527 5525 5522 5519 5516 5513 5509 5506 5503 5500 5497 5496 5493 5491 5490 5490 5489 5489 5489 5490 5492 5494 5496 5499 5501 5504 5506 5509 5511 5511 5510 5511 5511 5511 5513 5518 5522 5525 5528 5530 5533 5535 5536